CubeSats
NORAD ID: 35932
Int'l Code: 2009-051B
Perigee: 714.8 km
Apogee: 727.7 km
Inclination: 98.4 °
Period: 99.1 minutes
Semi major axis: 7092 km
Launch date: September 23, 2009
Source: (SWTZ)
Comments: SWISSCUBE is Switzerland's first satellite and will try to detect a phenomenon known as airglow using an off-the-shelf sensor.
Two Line Element Set (TLE):
1 35932U 09051B 13142.29327540 .00000826 00000-0 20873-3 0 293
2 35932 098.3560 249.8983 0009099 138.3955 221.7935 14.53536071194108
Source: AFSPC
NASA's NSSDC Master Catalog entry for SWISSCUBE